Delta Virtual Airport Information Service

Windsor Locks Bradley International Airport

ICAO: KBDL Country: United States
Latitude: 41.9389 Longitude: -72.6832
Latest Arrival : UAL255 (B) (KIAD-KBDL) Latest Departure : SKW4102 (1C) (KBDL-KDTW)


WX CaptureLIVE
Data provided by noaa.gov | Fetched at 11:31:48

METAR : KBDL 151551Z 00000KT 10SM SCT028 BKN100 24/15 A2973 RMK AO2 SLP067 T02390150

TAF : KBDL 151405Z 1514/1618 VRB03KT P6SM SCT020 BKN030 FM151600 28009KT P6SM BKN050 FM152100 30007KT P6SM VCSH SCT050 BKN250 FM160000 31004KT P6SM FEW090 SCT250


Runway Data for KBDL
Data provided by openaviationdata.com

Runway ID Mag Var Hdg Length Elevation Surface ILS Freq ILS Id ILS Slope
1 -14 13° 5146 ft 173 ft Asphalt -- -- --
6 -14 58° 9505 ft 173 ft Asphalt 111.1 IBDL 3
15 -14 148° 6844 ft 173 ft Asphalt -- -- --
19 -14 193° 5146 ft 173 ft Asphalt -- -- --
24 -14 238° 9505 ft 173 ft Asphalt 111.1 IMYQ 3
33 -14 328° 6844 ft 173 ft Asphalt 108.55 IIKX 3

Windsor Locks Bradley International Airport, United States
Use only for reference purposes



Not for navigational purposes.